Regional Weather Roundup
Issued by NWS

Home | Current Version | Previous Version | Text Only | Print | Product List | Glossary Off
Versions: 1 2 3 4 5 6 7 8 9 10 11 12 13 14 15 16 17 18 19 20 21 22 23 24 25 26 27 28 29 30 31 32 33 34 35 36 37 38 39 40 41 42 43 44 45 46 47 48 49 50

000
ASUS43 KMPX 280001
RWRMN
WEATHER ROUNDUP FOR MINNESOTA
NATIONAL WEATHER SERVICE TWIN CITIES/CHANHASSEN MN
700 PM CDT FRI MAR 27 2015


NOTE: "FAIR" INDICATES FEW OR NO CLOUDS BELOW 12,000 FEET WITH NO
SIGNIFICANT WEATHER AND/OR OBSTRUCTIONS TO VISIBILITY. N/A MEANS
CURRENT SKY AND/OR WEATHER CONDITIONS ARE NOT AVAILABLE.

MNZ060>063-068>070-280100-
   Twin Cities Metro

CITY           SKY/WX    TMP DP  RH WIND       PRES   REMARKS
TWIN CITIES    MOCLDY    32   5  32 SW10      30.16R WCI  24
6HR MIN TEMP:  30; 6HR MAX TEMP:  36;

ST PAUL        MOCLDY    31   6  35 S10       30.17R WCI  22
CRYSTAL        MOCLDY    32   8  36 SW10      30.15R WCI  24
BLAINE         PTCLDY    36   7  30 SW6       30.14S
LAKEVILLE      MOCLDY    27   9  46 W5        30.16S WCI  21
EDEN PRAIRIE   CLOUDY    30   7  37 SW7       30.16R WCI  23
6HR MIN TEMP:  30; 6HR MAX TEMP:  34;

SOUTH ST PAUL  MOCLDY    32   7  34 SW8       30.16S WCI  25
LAKE ELMO      FAIR      32  12  43 S10       30.16S WCI  24
$$
MNZ001>005-007-008-013>017-022>024-027-028-280100-
   Northwest Minnesota

CITY           SKY/WX    TMP DP  RH WIND       PRES   REMARKS
BEMIDJI        CLOUDY    33   3  28 CALM      30.08S
HALLOCK        MOCLDY    32  21  64 SE14      30.09R WCI  22
ROSEAU         PTCLDY    34  16  47 S6        30.10S WCI  29
WARROAD        PTCLDY    28  18  64 E3        30.10S
THIEF RVR FALL CLOUDY    30  16  55 S8        30.10S WCI  23
CROOKSTON      CLOUDY    30  19  64 S12       30.11S WCI  21
FOSSTON        CLOUDY    30   9  40 SW8       30.09S WCI  23
DETROIT LAKES  CLOUDY    32  10  40 SW3       30.10S
MOORHEAD       LGT RAIN  34  18  51 SE7       30.11R WCI  28
PARK RAPIDS    CLOUDY    34   4  28 S5        30.08R WCI  30
MAHNOMEN       CLOUDY    32   8  35 SW7       30.09S WCI  26
$$
MNZ006-009>011-018-025>026-280100-
   North Central Minnesota

CITY           SKY/WX    TMP DP  RH WIND       PRES   REMARKS
BAUDETTE       CLOUDY    32   8  36 SE5       30.09R WCI  27
FLAG ISLAND    CLOUDY    27   9  46 SE7       30.09S WCI  19
INTL FALLS     PTCLDY    32   8  36 E6        30.09S WCI  26
6HR MIN TEMP:  27; 6HR MAX TEMP:  36;

WASKISH        MOCLDY    30   7  37 CALM      30.10S
BIG FORK       CLOUDY    34   1  25 CALM      30.10S
LONGVILLE      CLOUDY    32   1  27 SE5       30.10S WCI  27
GRAND RAPIDS   CLOUDY    34   1  25 W5        30.10R WCI  30
CRANE LAKE     CLEAR     32  -4  21 SW2       30.12S
ORR            PTCLDY    30  -2  24 CALM      30.07S
COOK           PTCLDY    32   0  25 CALM      30.10S
WALKER         CLOUDY    32   4  31 CALM      30.09R
$$
MNZ012-019>021-037-280100-
   Northeast Minnesota

CITY           SKY/WX    TMP DP  RH WIND       PRES   REMARKS
DULUTH         PTCLDY    25   4  40 SE10      30.11F WCI  15
6HR MIN TEMP:  25; 6HR MAX TEMP:  30;

ELY            CLEAR     30  -2  24 NE3       30.10R
HIBBING        PTCLDY    30   3  31 CALM      30.09S
EVELETH        CLEAR     32   3  29 SW5       30.11R WCI  27
DULUTH HARBOR  CLEAR     28  12  50 E12       30.18S WCI  18
TWO HARBORS    CLEAR     27  12  54 E6        30.14S WCI  20
SILVER BAY     CLEAR     23   9  54 E6        30.15S WCI  16
GRAND MARAIS     N/A     22   9  57 SW6       30.22S WCI  14
G MARAIS ARPRT CLEAR     16   3  57 S3        30.12S
$$
MNZ029>031-032-039>041-046>048-054>057-064-280100-
   West Central Minnesota

CITY           SKY/WX    TMP DP  RH WIND       PRES   REMARKS
FERGUS FALLS   MOCLDY    32   3  29 S6        30.13R WCI  26
WHEATON        CLOUDY    32  18  55 S8G17     30.11R WCI  25
MORRIS         CLOUDY    34  19  55 SE6       30.08S WCI  29
ALEXANDRIA     CLOUDY    31  13  47 S8        30.11R WCI  23
ELBOW LAKE     CLOUDY    32  13  46 SE7       30.10R WCI  25
WADENA         CLOUDY    30  10  43 SW8       30.10R WCI  23
GLENWOOD       CLOUDY    30  16  55 SE7       30.11R WCI  23
APPLETON       CLOUDY    37   7  28 SE6       30.09S
BENSON         CLOUDY    34  12  40 S6        30.10S WCI  29
ORTONVILLE     CLOUDY    36   9  32 CALM      30.08S
MADISON        CLOUDY    37   9  30 S6        30.08S
WILLMAR        FAIR      32  18  55 SE10      30.12F WCI  24
$$
MNZ033>034-036-042>043-049>051-058-059-280100-
   Central Minnesota

CITY           SKY/WX    TMP DP  RH WIND       PRES   REMARKS
ST CLOUD       CLOUDY    32   7  35 S9        30.13S WCI  24
6HR MIN TEMP:  29; 6HR MAX TEMP:  35;

SAUK CENTRE    CLOUDY    30  12  47 S5        30.11S WCI  25
PAYNESVILLE    CLOUDY    28  12  52 E7        30.13S WCI  20
AITKIN         MOCLDY    36   0  21 CALM      30.10S
PINE RIVER     CLOUDY    34   9  35 SE5       30.13R WCI  30
BRAINERD       CLOUDY    33   2  26 S6        30.11R WCI  28
STAPLES        CLOUDY    30   5  34 S6        30.10S WCI  24
LONG PRAIRIE   CLOUDY    30  14  51 S7        30.11R WCI  23
LITTLE FALLS   CLOUDY    32   5  32 SW6       30.12S WCI  26
LITCHFIELD     CLOUDY    30  12  47 SE3       30.13F
BUFFALO        CLOUDY    30   7  37 S7        30.16S WCI  23
MAPLE LAKE     CLOUDY    31  10  41 CALM      30.15S
$$
MNZ037-044-045-052-053-280100-
   East Central Minnesota

CITY           SKY/WX    TMP DP  RH WIND       PRES   REMARKS
PRINCETON      CLOUDY    34   5  29 S5        30.14R WCI  30
MORA           PTCLDY    32   1  27 SW3       30.15S
CAMBRIDGE      PTCLDY    36  12  38 S3        30.12S
RUSH CITY      PTCLDY    33   1  25 CALM      30.14S
MOOSE LAKE     PTCLDY    34   3  27 CALM      30.11S
HINCKLEY       FAIR      32   5  32 S3        30.13S
CLOQUET        PTCLDY    28   1  31 SE8       30.11S WCI  20
MCGREGOR       MOCLDY    32   3  29 SW3       30.12S
$$
MNZ071>073-080-081-089-090-097-098-280100-
   Southwest Minnesota

CITY           SKY/WX    TMP DP  RH WIND       PRES   REMARKS
MONTEVIDEO     CLOUDY    34  18  51 S7        30.11R WCI  28
GRANITE FALLS  CLOUDY    35  13  41 SE6       30.11S WCI  30
CANBY          CLOUDY    36  11  35 SW7       30.09R
MARSHALL       CLOUDY    36  10  35 SW9       30.09F
REDWOOD FALLS  CLOUDY    32  20  61 NE9       30.11S WCI  24
OLIVIA         CLOUDY    30  18  59 E12       30.11F WCI  21
PIPESTONE      CLOUDY    34  16  47 S12       30.04F WCI  25
WINDOM         CLOUDY    36   7  30 S8        30.10S
WORTHINGTON    CLOUDY    34   9  35 SW10      30.09F WCI  26
JACKSON        CLOUDY    34  10  37 SW7       30.11S WCI  28
TRACY          CLOUDY    35   9  33 S5        30.09S WCI  31
SLAYTON        CLOUDY    33   6  31 CALM      30.09S
$$
MNZ065>067-074>077-082>085-091>093-280100-
   South Central Minnesota

CITY           SKY/WX    TMP DP  RH WIND       PRES   REMARKS
MANKATO        MOCLDY    30  12  47 E7        30.14F WCI  23
NEW ULM        MOCLDY    34  18  51 SE8       30.12F WCI  27
ST JAMES       MOCLDY    36  18  48 SE3       30.13F
FAIRMONT       MOCLDY    36   9  32 S7        30.12S
GLENCOE        MOCLDY    30  13  49 E3        30.14F
FARIBAULT      MOCLDY    30   7  37 CALM      30.16S
OWATONNA       PTCLDY    28  10  47 E3        30.16S
WASECA         MOCLDY    30  12  47 SE6       30.16F WCI  24
ALBERT LEA     PTCLDY    30  14  51 E7        30.14S WCI  23
$$
MNZ078>079-086>088-094>096-280100-
   Southeast Minnesota

CITY           SKY/WX    TMP DP  RH WIND       PRES   REMARKS
ROCHESTER      PTCLDY    26  10  50 CALM      30.16R
6HR MIN TEMP:  24; 6HR MAX TEMP:  29;

RED WING       PTCLDY    32   7  34 SW7       30.17R WCI  26
STANTON        PTCLDY    30   8  40 S5        30.16S WCI  25
DODGE CENTER   PTCLDY    27   3  36 CALM      30.16R
WINONA         CLEAR     32  12  43 SW7       30.19R WCI  26
AUSTIN         PTCLDY    27  12  54 E6        30.15S WCI  20
PRESTON        CLEAR     26  11  53 NW3       30.16S
$$
ABBREVIATIONS USED IN REMARKS
   TC - TEMPERATURES IN CELSIUS
  WCI - WIND CHILL INDEX
   HX - HEAT INDEX
  VSB - VISIBILITY
$$



USA.gov is the U.S. government's official web portal to all federal, state and local government web resources and services.